Weather History for KPRO - September, 2013

Change the Weather History Date:

Friday, September 27, 2013

  Actual Average (WUND) Record (WUND)
Temperature  
Mean Temperature 76 °F -  
Max Temperature 87 °F - - (-1)
Min Temperature 65 °F - - (-1)
Cooling Degree Days 11    
Growing Degree Days 26 (Base 50)    
Moisture  
Dew Point 58 °F    
Average Humidity 58    
Maximum Humidity 82    
Minimum Humidity 33    
Precipitation  
Precipitation 0.00 in - - ()
Sea Level Pressure  
Sea Level Pressure 29.90 in    
Wind  
Wind Speed 11 mph (SSE)    
Max Wind Speed 22 mph    
Max Gust Speed 30 mph    
Visibility 10 miles    
Events      
Averages and records for this station are not official NWS values.
T = Trace of Precipitation, MM = Missing Value Source: NWS Daily Summary

Daily Weather History Graph

Daily Weather History Graph

Search for Another Location

Airport or City:

Trip Planner

Search our weather history database for the weather conditions in past years. The results will help you decide how hot, cold, wet, or windy it might be!

Date:

Astronomy

Sep. 27, 2013 Rise Set
Actual Time 7:09 AM CDT 7:04 PM CDT
Civil Twilight 6:41 AM CDT 7:32 PM CDT
Nautical Twilight 6:09 AM CDT 8:04 PM CDT
Astronomical Twilight 5:36 AM CDT 8:37 PM CDT
Moon 12:00 AM CDT 2:48 PM CDT
Length of Visible Light 12h 50m
Length of Day
11h 55m
Last Quarter, 45% of the Moon is Illuminated
Sep 27
Last Quarter
Oct 4
New
Oct 11
First Quarter
Oct 18
Full
Oct 26
Last Quarter

Hourly Weather History & Observations

Time (CDT) Temp. Heat Index Dew Point Humidity Pressure Visibility Wind Dir Wind Speed Gust Speed Precip Events Conditions
12:15 AM 67.6 °F - 59.0 °F 74% 29.92 in 10.0 mi SSE 6.9 mph - N/A   Clear
12:35 AM 67.5 °F - 59.2 °F 75% 29.92 in 10.0 mi SSE 6.9 mph - N/A   Clear
12:55 AM 67.3 °F - 59.2 °F 75% 29.92 in 10.0 mi SSE 5.8 mph - N/A   Clear
1:15 AM 67.3 °F - 59.4 °F 76% 29.92 in 10.0 mi SSE 8.1 mph - N/A   Clear
1:35 AM 67.3 °F - 59.4 °F 76% 29.92 in 10.0 mi SSE 8.1 mph - N/A   Clear
1:55 AM 67.3 °F - 59.7 °F 77% 29.93 in 10.0 mi SE 8.1 mph - N/A   Clear
2:15 AM 67.5 °F - 59.5 °F 76% 29.92 in 10.0 mi SSE 9.2 mph - N/A   Clear
2:35 AM 67.6 °F - 59.7 °F 76% 29.93 in 10.0 mi SSE 9.2 mph - N/A   Clear
2:55 AM 67.5 °F - 59.7 °F 76% 29.92 in 10.0 mi SSE 9.2 mph - N/A   Clear
3:15 AM 68.0 °F - 59.9 °F 75% 29.92 in 10.0 mi SSE 10.4 mph - N/A   Clear
3:35 AM 68.0 °F - 59.9 °F 75% 29.92 in 10.0 mi SSE 12.7 mph 18.4 mph N/A   Clear
3:55 AM 67.5 °F - 59.7 °F 76% 29.92 in 10.0 mi SSE 12.7 mph 16.1 mph N/A   Clear
4:15 AM 67.6 °F - 59.9 °F 76% 29.92 in 10.0 mi SSE 11.5 mph - N/A   Scattered Clouds
4:35 AM 67.1 °F - 59.7 °F 77% 29.92 in 10.0 mi SSE 11.5 mph 18.4 mph N/A   Clear
4:55 AM 67.1 °F - 59.9 °F 78% 29.92 in 10.0 mi SSE 9.2 mph 17.3 mph N/A   Clear
5:15 AM 67.1 °F - 59.5 °F 77% 29.92 in 10.0 mi SSE 10.4 mph - N/A   Clear
5:35 AM 67.1 °F - 59.9 °F 78% 29.92 in 10.0 mi SSE 11.5 mph - N/A   Clear
5:55 AM 67.1 °F - 59.7 °F 77% 29.92 in 10.0 mi SSE 10.4 mph - N/A   Clear
6:15 AM 66.6 °F - 59.5 °F 78% 29.92 in 10.0 mi SSE 11.5 mph - N/A   Clear
6:35 AM 66.4 °F - 59.7 °F 79% 29.92 in 10.0 mi SSE 11.5 mph - N/A   Clear
6:55 AM 66.2 °F - 59.5 °F 79% 29.93 in 10.0 mi SSE 8.1 mph - N/A   Clear
7:15 AM 65.7 °F - 59.9 °F 82% 29.93 in 10.0 mi SE 10.4 mph - N/A   Clear
7:35 AM 66.2 °F - 59.9 °F 80% 29.94 in 10.0 mi SSE 10.4 mph - N/A   Clear
7:55 AM 66.9 °F - 60.1 °F 79% 29.94 in 10.0 mi SSE 9.2 mph 16.1 mph N/A   Clear
8:15 AM 68.0 °F - 60.1 °F 76% 29.94 in 10.0 mi SSE 11.5 mph 17.3 mph N/A   Clear
8:35 AM 69.1 °F - 60.3 °F 73% 29.94 in 10.0 mi SSE 11.5 mph 20.7 mph N/A   Clear
8:55 AM 70.5 °F - 60.1 °F 69% 29.94 in 10.0 mi SSE 15.0 mph 20.7 mph N/A   Clear
9:15 AM 72.1 °F - 60.1 °F 66% 29.94 in 10.0 mi SSE 13.8 mph 20.7 mph N/A   Clear
9:35 AM 73.0 °F - 59.9 °F 63% 29.95 in 10.0 mi South 10.4 mph 20.7 mph N/A   Clear
9:55 AM 74.7 °F - 59.2 °F 58% 29.95 in 10.0 mi South 11.5 mph 24.2 mph N/A   Clear
10:15 AM 76.1 °F - 59.2 °F 56% 29.95 in 10.0 mi South 13.8 mph 21.9 mph N/A   Clear
10:35 AM 78.3 °F - 58.8 °F 51% 29.94 in 10.0 mi South 16.1 mph 20.7 mph N/A   Clear
10:55 AM 80.1 °F 80.7 °F 58.5 °F 48% 29.94 in 10.0 mi SSE 15.0 mph 23.0 mph N/A   Clear
11:15 AM 81.9 °F 81.8 °F 57.7 °F 44% 29.94 in 10.0 mi South 13.8 mph 23.0 mph N/A   Clear
11:35 AM 82.6 °F 82.1 °F 56.7 °F 41% 29.93 in 10.0 mi SSE 18.4 mph 25.3 mph N/A   Clear
11:55 AM 82.9 °F 82.3 °F 56.1 °F 40% 29.92 in 10.0 mi South 16.1 mph 26.5 mph N/A   Clear
12:15 PM 83.7 °F 82.8 °F 55.9 °F 39% 29.92 in 10.0 mi South 18.4 mph 25.3 mph N/A   Clear
12:35 PM 85.1 °F 83.9 °F 55.9 °F 37% 29.91 in 10.0 mi SSE 19.6 mph 25.3 mph N/A   Clear
12:55 PM 85.5 °F 84.1 °F 55.6 °F 36% 29.90 in 10.0 mi SSE 18.4 mph 26.5 mph N/A   Clear
1:15 PM 84.2 °F 83.2 °F 55.8 °F 38% 29.90 in 10.0 mi South 18.4 mph 26.5 mph N/A   Clear
1:35 PM 85.5 °F 84.3 °F 56.1 °F 37% 29.89 in 10.0 mi SSE 20.7 mph 26.5 mph N/A   Clear
1:55 PM 86.5 °F 84.9 °F 55.2 °F 34% 29.89 in 10.0 mi South 18.4 mph 25.3 mph N/A   Clear
2:15 PM 86.2 °F 84.7 °F 55.8 °F 35% 29.88 in 10.0 mi South 13.8 mph 29.9 mph N/A   Clear
2:35 PM 86.4 °F 84.9 °F 55.6 °F 35% 29.87 in 10.0 mi SSE 17.3 mph 29.9 mph N/A   Clear
2:55 PM 87.1 °F 85.5 °F 55.2 °F 34% 29.87 in 10.0 mi South 13.8 mph 26.5 mph N/A   Clear
3:15 PM 86.4 °F 84.9 °F 55.4 °F 35% 29.86 in 10.0 mi SSE 19.6 mph 28.8 mph N/A   Clear
3:35 PM 86.5 °F 84.9 °F 55.4 °F 34% 29.86 in 10.0 mi SSE 21.9 mph 26.5 mph N/A   Clear
3:55 PM 86.4 °F 84.7 °F 55.0 °F 34% 29.86 in 10.0 mi SSE 18.4 mph 27.6 mph N/A   Clear
4:15 PM 86.4 °F 84.5 °F 54.1 °F 33% 29.86 in 10.0 mi SSE 19.6 mph 27.6 mph N/A   Clear
4:35 PM 86.2 °F 84.4 °F 54.0 °F 33% 29.86 in 10.0 mi South 16.1 mph 25.3 mph N/A   Clear
4:55 PM 85.6 °F 83.8 °F 53.2 °F 33% 29.86 in 10.0 mi SSE 16.1 mph 26.5 mph N/A   Clear
5:15 PM 85.1 °F 83.3 °F 53.2 °F 33% 29.86 in 10.0 mi South 19.6 mph 26.5 mph N/A   Clear
5:35 PM 84.4 °F - 52.7 °F 33% 29.86 in 10.0 mi South 18.4 mph 26.5 mph N/A   Clear
5:55 PM 83.7 °F 82.3 °F 53.2 °F 35% 29.86 in 10.0 mi SSE 12.7 mph 24.2 mph N/A   Clear
6:15 PM 82.6 °F 81.6 °F 54.1 °F 37% 29.86 in 10.0 mi SSE 15.0 mph 23.0 mph N/A   Clear
6:35 PM 81.1 °F 80.8 °F 54.7 °F 40% 29.86 in 10.0 mi SSE 11.5 mph 17.3 mph N/A   Clear
6:55 PM 78.8 °F - 55.9 °F 45% 29.86 in 10.0 mi SSE 8.1 mph - N/A   Clear
7:15 PM 76.5 °F - 56.7 °F 50% 29.86 in 10.0 mi SE 8.1 mph - N/A   Clear
7:35 PM 74.3 °F - 57.4 °F 55% 29.86 in 10.0 mi SE 8.1 mph - N/A   Clear
7:55 PM 74.8 °F - 58.3 °F 56% 29.85 in 10.0 mi SE 9.2 mph - N/A   Clear
8:15 PM 74.7 °F - 58.3 °F 57% 29.86 in 10.0 mi SE 9.2 mph 16.1 mph N/A   Clear
8:35 PM 74.3 °F - 58.3 °F 57% 29.87 in 10.0 mi SSE 9.2 mph - N/A   Clear
8:55 PM 73.6 °F - 58.3 °F 59% 29.87 in 10.0 mi SSE 9.2 mph - N/A   Clear
9:15 PM 73.4 °F - 58.1 °F 59% 29.88 in 10.0 mi SSE 9.2 mph - N/A   Clear
9:35 PM 72.5 °F - 58.1 °F 60% 29.88 in 10.0 mi SSE 9.2 mph - N/A   Clear
9:55 PM 71.8 °F - 58.3 °F 62% 29.88 in 10.0 mi SSE 9.2 mph - N/A   Clear
10:15 PM 71.2 °F - 58.3 °F 64% 29.87 in 10.0 mi SSE 9.2 mph - N/A   Clear
10:35 PM 71.2 °F - 58.3 °F 64% 29.87 in 10.0 mi SSE 10.4 mph - N/A   Clear
10:55 PM 70.7 °F - 58.1 °F 64% 29.86 in 10.0 mi SSE 10.4 mph - N/A   Clear
11:15 PM 70.0 °F - 58.1 °F 66% 29.86 in 10.0 mi SSE 10.4 mph - N/A   Clear
11:35 PM 69.8 °F - 58.3 °F 67% 29.85 in 10.0 mi SSE 9.2 mph - N/A   Clear
11:55 PM 69.4 °F - 58.3 °F 68% 29.85 in 10.0 mi SSE 9.2 mph - N/A   Clear